GFSNIL_sfc_rhum_081.txt.gz
RH
69 74 74 74 75 75 77 76 72 74 76 77 75 78 80 85 90 94 96 91 93 97
69 70 72 72 71 74 73 63 70 72 74 76 76 78 81 87 92 92 95 96 93 95
69 68 69 69 69 70 70 70 74 75 76 77 77 79 82 90 90 90 94 93 87 90
68 68 68 69 70 71 70 75 76 76 76 77 79 81 86 87 86 88 91 84 85 87
66 66 68 68 70 73 76 76 76 75 77 79 82 85 86 86 86 90 90 87 84 86
72 75 78 78 73 76 79 79 78 78 81 83 84 87 87 87 88 89 90 88 85 91
83 80 80 82 81 80 82 84 83 82 82 83 85 85 86 87 93 93 91 89 92 92
82 82 84 86 87 86 86 86 85 84 82 80 74 73 80 82 87 85 85 85 82 83
82 84 88 91 91 92 92 91 89 89 87 87 79 79 77 82 84 84 86 87 78 74
83 87 91 92 93 95 95 93 93 87 87 89 85 78 76 81 91 94 93 92 82 70
85 90 93 93 94 95 96 95 95 90 88 87 82 75 79 82 93 94 93 87 78 76
88 93 95 95 96 96 96 96 95 91 89 87 83 68 65 74 81 83 76 67 65 73
89 92 94 95 96 97 95 100 94 92 89 77 81 62 54 63 63 65 62 66 65 68
91 94 93 95 98 97 97 95 91 87 85 88 75 72 57 53 52 56 57 58 60 68

GFSNIL_sfc_rhum_087.txt.gz
RH
91 94 92 94 92 90 91 86 81 80 80 80 78 80 82 88 91 93 97 97 98 97
89 82 93 90 91 87 83 74 80 78 79 78 77 79 81 88 90 94 95 97 97 97
75 76 78 80 80 77 69 70 73 75 74 74 76 79 85 89 91 93 95 97 95 95
81 77 75 72 72 70 70 71 71 73 73 75 81 84 86 88 90 91 92 94 93 91
81 80 79 74 73 75 76 72 73 74 76 80 84 88 88 90 90 92 93 93 92 89
85 82 79 74 72 73 75 74 74 78 82 84 86 89 89 90 91 92 93 93 92 90
88 85 85 82 81 77 76 78 80 86 87 87 88 89 90 92 92 93 93 92 93 89
89 88 90 89 90 87 88 90 90 90 89 89 87 84 90 91 89 87 87 87 82 84
91 92 92 93 93 93 92 92 91 92 91 91 84 76 79 82 90 88 89 89 81 76
92 93 93 94 94 94 94 94 94 93 93 94 92 80 82 82 93 95 95 90 82 70
92 93 94 95 95 95 96 96 96 96 94 94 90 80 81 85 99 100 95 87 75 80
92 93 95 96 96 96 97 97 96 96 95 96 92 80 81 89 89 88 85 78 83 83
91 92 94 94 96 97 96 99 99 96 96 90 88 78 77 81 74 84 79 79 77 71
93 93 93 95 96 98 97 99 99 96 89 83 80 74 71 67 68 69 72 74 77 79

GFSNIL_sfc_rhum_090.txt.gz
RH
96 98 98 98 98 96 95 93 83 79 79 79 79 80 81 84 89 92 95 96 97 98
94 94 95 97 97 94 91 83 81 77 81 80 80 79 81 85 86 92 95 96 98 97
86 88 94 93 95 91 83 78 74 75 77 77 77 79 81 86 90 92 95 97 97 96
83 82 84 85 82 78 77 75 73 75 78 77 78 82 84 87 90 91 92 93 95 93
85 83 82 80 77 75 75 74 73 73 75 78 82 84 84 86 88 92 93 94 94 92
88 86 84 82 79 78 77 76 76 76 82 81 88 89 90 91 92 92 93 94 93 93
90 89 87 87 88 86 83 84 85 84 83 88 86 90 91 92 93 93 92 92 92 88
90 90 91 91 91 90 89 90 89 90 89 91 88 85 90 92 93 88 87 87 82 84
91 92 92 92 93 92 93 93 92 92 92 92 86 76 77 84 93 90 90 90 82 76
92 92 93 93 94 94 94 93 93 94 93 93 92 79 80 81 96 97 96 93 87 70
93 93 94 95 94 94 95 95 95 95 94 95 93 80 80 88 99 100 98 92 79 69
92 93 95 96 96 96 96 97 96 95 96 96 94 80 81 91 93 93 90 80 72 74
92 92 94 94 96 96 96 100 99 97 96 92 94 81 78 89 84 85 81 73 75 71
89 92 93 95 96 98 98 99 99 98 96 94 92 89 77 77 74 77 78 76 81 84

GFSNIL_sfc_rhum_093.txt.gz
RH
97 96 94 94 96 93 94 94 93 93 85 73 74 73 75 75 77 78 82 81 84 84
86 88 93 95 94 94 92 91 84 74 75 74 70 70 72 73 76 79 85 86 88 89
77 80 86 90 94 91 84 78 74 72 72 72 72 72 72 73 75 75 79 83 85 86
71 76 81 83 83 78 73 71 70 70 69 71 74 72 71 74 75 74 75 79 83 84
72 73 74 75 73 68 68 65 65 66 66 67 70 70 71 74 75 75 78 80 83 82
74 71 70 69 67 66 66 66 65 65 68 70 74 76 74 72 74 76 78 80 81 82
77 75 73 72 72 71 69 70 71 71 72 74 75 77 78 79 80 80 79 80 79 77
78 76 76 77 77 75 73 72 73 76 77 76 75 75 79 79 79 79 79 79 77 78
80 80 80 80 80 80 81 80 78 79 80 82 75 80 81 81 79 81 82 85 77 74
81 81 82 82 83 84 84 83 83 82 80 80 79 79 80 81 87 92 92 91 87 69
84 83 84 85 85 86 86 88 86 84 83 84 82 81 80 86 98 99 98 93 82 67
85 86 88 90 90 89 88 90 93 90 92 93 87 82 81 87 86 85 84 78 69 63
85 84 87 88 91 94 92 99 92 94 91 87 83 85 81 83 82 81 83 74 69 76
87 87 84 89 94 95 94 97 96 88 84 83 84 81 80 80 78 76 76 72 64 60

GFSNIL_sfc_rhum_099.txt.gz
RH
83 91 89 88 88 89 94 96 93 98 97 96 96 95 92 90 85 79 80 80 78 75
79 84 84 86 81 83 89 89 94 96 98 98 96 91 84 76 70 67 74 75 78 76
65 68 72 78 81 89 89 91 94 96 93 87 82 78 70 66 66 66 69 71 74 74
50 55 63 66 73 79 84 87 88 84 82 78 68 63 66 68 68 68 70 70 70 71
52 54 57 61 66 71 77 78 77 72 69 70 66 62 64 69 69 68 70 73 73 72
53 52 52 57 62 65 68 69 65 65 64 61 61 60 60 60 62 64 65 67 70 72
56 56 54 56 59 63 62 62 62 60 59 62 63 63 63 63 64 67 67 69 72 70
58 58 57 58 57 58 58 58 56 56 57 58 60 58 63 62 61 63 65 70 67 72
58 59 62 60 60 60 60 59 57 59 62 67 55 74 74 68 65 65 67 73 71 71
55 61 61 62 61 64 67 64 65 62 62 64 63 81 79 80 69 74 76 77 78 74
60 62 63 64 67 69 68 71 71 68 66 69 67 84 83 83 84 87 87 84 77 72
63 64 65 72 74 73 71 74 77 72 73 75 74 87 87 84 78 80 81 75 72 70
64 68 70 70 76 77 78 84 83 80 76 76 74 87 86 84 70 72 75 71 72 75
65 70 71 75 77 81 82 79 83 78 73 70 70 73 85 85 75 72 74 80 75 72

GFSNIL_sfc_rhum_102.txt.gz
RH
93 96 96 94 93 94 95 97 97 98 99 98 98 98 98 98 98 96 95 92 88 88
94 93 94 94 91 90 89 92 94 96 97 98 97 98 98 97 94 90 91 91 89 87
82 84 90 93 95 96 94 97 98 98 98 99 98 98 97 93 87 84 89 86 88 87
68 72 78 84 90 92 94 96 98 98 98 96 93 90 87 82 80 82 83 82 86 84
67 69 74 78 84 90 89 91 90 88 89 88 81 77 78 79 80 80 82 82 79 80
70 70 70 75 79 81 90 89 79 77 78 77 76 76 79 82 82 81 80 81 82 82
76 74 73 72 75 81 82 85 78 71 70 72 72 72 74 75 76 78 78 78 79 81
77 76 76 76 75 75 77 79 78 70 67 69 70 68 72 71 74 76 77 80 78 81
70 76 80 79 78 79 79 78 76 75 74 74 64 74 78 73 73 75 78 87 85 86
75 75 80 81 82 84 85 84 82 80 79 81 78 80 78 78 82 86 89 90 91 88
79 82 81 84 85 86 87 88 88 86 84 85 82 82 82 83 88 90 90 90 91 90
82 86 87 88 89 89 89 90 90 88 88 89 89 86 87 89 94 95 94 93 91 88
81 86 90 91 92 91 91 92 97 93 91 88 91 89 89 89 88 95 95 92 90 84
81 86 88 91 93 93 89 92 93 95 92 85 85 91 88 89 82 82 86 89 88 90

GFSNIL_sfc_rhum_105.txt.gz
RH
98 98 98 96 95 98 99 98 97 98 99 99 98 99 98 99 99 99 99 98 94 90
98 98 96 96 96 93 96 95 97 97 98 98 98 98 98 98 98 98 98 98 96 91
91 93 94 95 97 95 96 95 97 97 97 96 98 97 98 98 97 98 97 96 93 91
70 74 80 85 94 97 97 98 98 98 98 98 98 98 98 98 96 96 97 92 90 93
73 73 77 85 91 92 94 95 96 98 99 99 98 98 98 96 93 95 94 87 88 91
78 78 78 80 84 86 91 92 92 91 91 90 89 87 88 89 86 87 87 83 85 84
82 81 79 78 79 82 85 90 88 85 82 80 78 77 80 83 89 91 89 88 84 83
76 80 82 81 81 80 80 84 86 81 78 78 76 73 79 82 84 87 85 89 88 89
80 80 84 86 87 86 85 85 83 85 81 83 76 77 80 78 78 80 83 87 88 90
82 85 87 87 88 88 88 88 88 87 85 84 84 79 80 82 81 85 86 88 90 89
85 88 90 91 91 92 91 90 91 90 89 89 85 81 81 83 90 91 91 90 87 84
85 89 91 92 94 94 94 93 93 92 91 92 91 84 85 86 93 94 92 88 88 85
87 90 92 92 94 94 95 94 93 92 93 91 94 86 88 87 88 88 91 90 92 88
84 88 89 92 93 92 92 90 89 92 88 86 83 81 88 89 87 83 87 92 92 90